Miscellaneous Hydrologic Data Report
Issued by NWS (Baltimore/Washington) Sterling, VA
1 of 27 available versions  First Miscellaneous Hydrologic Data Report Previous Miscellaneous Hydrologic Data Report  Print this page Close this Window


000
ASUS41 KLWX 250210
RWRLWX

REGIONAL WEATHER ROUNDUP
NATIONAL WEATHER SERVICE BALTIMORE MD/WASHINGTON DC
900 PM EST FRI FEB 24 2017

Note: "FAIR" indicates few or no clouds below 12,000 feet
with no significant weather and/or obstructions to visibility.
 TC=TEMPERATURE CELSIUS

 * =Non NWS site. Station does not report precipitation (e.g. rain,
    snow, etc.), thunder, or fog.

DCZ001-MDZ009-015-VAZ040>042-051-053>054-250300-
WASHINGTON METRO

CITY           SKY/WX    TMP DP  RH WIND       PRES   REMARKS
WASHINGTON NAT MOCLDY    62  57  83 S10       29.81R
DULLES         MOCLDY    65  54  67 SE10      29.79S
ANDREWS AFB    PTCLDY    61  57  85 SE9       29.81R
FT BELVOIR     CLEAR     63  56  76 SE7       29.80S
QUANTICO       CLEAR     58  54  86 SW7       29.81S
COLLEGE PARK*  PTCLDY    63  55  77 S3        29.81R
LEESBURG*      PTCLDY    66  57  72 MISG      29.80S
MANASSAS*        N/A     64  55  72 SE12      29.80S
GAITHERSBURG*  CLOUDY    63  52  67 S14       29.84S

$$

MDZ006>007-011-014-250300-
BALTIMORE METRO

CITY           SKY/WX    TMP DP  RH WIND       PRES   REMARKS
BWI AIRPORT    PTCLDY    62  60  93 S7        29.81S
MD SCIENCE CTR   N/A     63  57  81 MISG      29.82S
ANNAPOLIS      CLEAR     57  55  93 S12       29.82S
FORT MEADE*    CLEAR     61  55  82 SE3       29.83S

$$

MDZ012-015-019>023-250300-
MARYLAND EASTERN SHORE

CITY           SKY/WX    TMP DP  RH WIND       PRES   REMARKS
OCEAN CITY     CLEAR     53  51  93 VRB5      29.87F
SALISBURY      CLEAR     61  58  90 S7        29.86S
BAY BRIDGE AP* CLEAR     61  57  88 S9        29.82S
CAMBRIDGE*       N/A     63  57  82 S14G21    29.84S
EASTON*        CLEAR     64  59  82 S14G22    29.87S

$$

MDZ017>025-250300-
SOUTHERN MARYLAND

CITY           SKY/WX    TMP DP  RH WIND       PRES   REMARKS
PATUXENT RIVER PTCLDY    61  59  93 S10       29.83F
ST INIGOES     CLEAR     59  56  89 SE7       29.83S
LEONARDTOWN*   CLEAR     59  55  88 SE7       29.85S

$$

MDZ003>005-250300-
NORTH CENTRAL MARYLAND

CITY           SKY/WX    TMP DP  RH WIND       PRES   REMARKS
FREDERICK*     NOT AVBL
HAGERSTOWN APT CLOUDY    68  52  56 S15       29.75S
WESTMINSTER*   CLEAR     63  57  82 S12G17    29.80S

$$

MDZ501>502-250300-
WESTERN MARYLAND

CITY           SKY/WX    TMP DP  RH WIND       PRES   REMARKS
OAKLAND*       CLEAR     57  45  62 S13       29.73S
CUMBERLAND*    CLOUDY    68  48  49 S8        29.74S

$$

VAZ025>031-250300-
SHENANDOAH VALLEY

CITY           SKY/WX    TMP DP  RH WIND       PRES   REMARKS
WINCHESTER*    PTCLDY    64  50  59 S9        29.75F
FRONT ROYAL*   MOCLDY    66  50  55 S6        29.75F
LURAY*         PTCLDY    63  52  67 SW5       29.77F
NEW MARKET*    PTCLDY    65  50  58 S10       29.75F
STAUNTON*      CLEAR     63  50  63 S7        29.80F
WAYNESBORO*    PTCLDY    61  49  65 SE6       29.80S

$$

WVZ021-048>050-054>055-250300-
EASTERN WEST VIRGINIA PANHANDLE

CITY           SKY/WX    TMP DP  RH WIND       PRES   REMARKS
MARTINSBURG    PTCLDY    66  50  56 S9        29.74F
PETERSBURG*    CLOUDY    60  50  68 CALM      29.73F

$$

VAZ036>039-050-250300-
CENTRAL FOOTHILLS

CITY           SKY/WX    TMP DP  RH WIND       PRES   REMARKS
CHARLOTTESVILL PTCLDY    66  52  60 S9        29.79F
CULPEPER*      PTCLDY    61  52  72 CALM      29.79F
ORANGE*        PTCLDY    63  52  67 SE3       29.81S
GORDONSVILLE*  CLOUDY    61  53  73 CALM      29.79F
WARRENTON*     CLOUDY    66  49  53 SE5       29.79S

$$

VAZ055>057-250300-
NORTH AND CENTRAL PIEDMONT

CITY           SKY/WX    TMP DP  RH WIND       PRES   REMARKS
FREDERICKSBRG* CLEAR     64  57  77 SE7       29.80S
STAFFORD*      CLEAR     62  56  81 SE6       29.84S

$$

NCZ024-NYZ072-PAZ021-071-VAZ022-071-250300-
OTHER REGIONAL OBSERVATIONS

CITY           SKY/WX    TMP DP  RH WIND       PRES   REMARKS
NEW YORK CITY  CLEAR     60  54  80 VRB5      29.89R
PHILADELPHIA   PTCLDY    62  57  83 S15       29.84F
PITTSBURGH     MOCLDY    61  47  59 SE3       29.60F
ROANOKE        PTCLDY    65  50  58 SE5       29.81F
RICHMOND       MOCLDY    65  58  78 S10       29.82S
RALEIGH        PTCLDY    65  53  65 SE6       29.83S

$$

ANZ530>537-250300-
MARINE OBSERVATIONS

STATION/POSITION TIME  TEMP    WIND        PRES
                       AIR SEA DIR/SP/G
                 (UTC) (F)     (DEG/KT/KT) (MB)
THOMAS PT LIGHT  0200   50 46  200/ 12/ 14   N/A
BALT KEY BRIDGE  0148   60     160/ 15/ 17 1009.4S
COVE POINT       0148   52     190/ 18/ 21 1010.7F
LEWISETTA        0148   61 51  180/ 12/ 16 1010.0F
SOLOMONS ISLAND  0148          170/ 13/ 15   N/A
PINEY POINT      0148          150/  9/  9   N/A

$$



Close this window


The National Weather Service prepares its forecasts and other services in collaboration with agencies like the US Geological Survey, US Bureau of Reclamation, US Army Corps of Engineers, Natural Resource Conservation Service, National Park Service, ALERT Users Group, Bureau of Indian Affairs, and many state and local emergency managers across the country. For details, please click here.

National Weather Service
(Baltimore/Washington) Sterling Weather Forecast Office
43858 Weather Service Rd.
Sterling, VA 20166
(703) 996-2200
Page last modified: 25-Feb-2017 2:10 AM
Disclaimer
Credits
Glossary
Privacy Policy
About Us
Career Opportunities